Weather History for Rockingham, NC

Change the Weather History Date:

Wednesday, February 27, 2013

  Actual Average (KHFF) Record (KHFF)
Temperature  
Mean Temperature 48 °F -  
Max Temperature 59 °F 53 °F 80 °F (2011)
Min Temperature 38 °F 35 °F 23 °F (2014)
Degree Days  
Heating Degree Days 16    
Moisture  
Dew Point 40 °F    
Average Humidity 75    
Maximum Humidity 100    
Minimum Humidity 47    
Precipitation  
Precipitation 0.00 in - - ()
Sea Level Pressure  
Sea Level Pressure 29.76 in    
Wind  
Wind Speed 7 mph (SW)    
Max Wind Speed 14 mph    
Max Gust Speed 18 mph    
Visibility 9 miles    
Events      
Averages and records for this station are not official NWS values.
T = Trace of Precipitation, MM = Missing Value Source: NWS Daily Summary

Daily Weather History Graph

Daily Weather History Graph

Search for Another Location

Airport:

Trip Planner

Search our weather history database for the weather conditions in past years. The results will help you decide how hot, cold, wet, or windy it might be!

Date:

Astronomy

Feb. 27, 2013 Rise Set
Actual Time 6:50 AM EST 6:13 PM EST
Civil Twilight 6:25 AM EST 6:38 PM EST
Nautical Twilight 5:55 AM EST 7:08 PM EST
Astronomical Twilight 5:26 AM EST 7:37 PM EST
Moon 8:24 PM EST (2/27) 7:31 AM EST (2/27)
Length of Visible Light 12h 13m
Length of Day
11h 22m
Waning Gibbous, 96% of the Moon is Illuminated
Feb 27
Waning Gibbous
Mar 4
Last Quarter
Mar 11
New
Mar 19
First Quarter
Mar 27
Full

Hourly Weather History & Observations

Time (EST) Temp. Windchill Dew Point Humidity Pressure Visibility Wind Dir Wind Speed Gust Speed Precip Events Conditions
12:15 AM 45.0 °F 41.2 °F 45.0 °F 100% 29.68 in 2.5 mi WSW 6.9 mph - N/A   Mist
12:35 AM 45.5 °F 39.9 °F 45.5 °F 100% 29.69 in 3.0 mi WSW 11.5 mph - N/A   Overcast
12:55 AM 45.0 °F 38.9 °F 45.0 °F 100% 29.70 in 4.0 mi WSW 12.7 mph - N/A   Overcast
1:15 AM 45.0 °F 40.1 °F 45.0 °F 100% 29.71 in 5.0 mi WSW 9.2 mph - N/A   Overcast
1:35 AM 45.0 °F 39.7 °F 45.0 °F 100% 29.72 in 7.0 mi SW 10.4 mph - N/A   Overcast
1:55 AM 44.2 °F 40.3 °F 44.2 °F 100% 29.71 in 7.0 mi SW 6.9 mph - N/A   Scattered Clouds
2:15 AM 44.1 °F 40.1 °F 44.1 °F 100% 29.71 in 7.0 mi SSW 6.9 mph - N/A   Clear
2:35 AM 43.7 °F 39.7 °F 43.5 °F 99% 29.70 in 7.0 mi SSW 6.9 mph - N/A   Clear
2:55 AM 43.2 °F 37.9 °F 43.0 °F 99% 29.69 in 7.0 mi SSW 9.2 mph - N/A   Clear
3:15 AM 43.0 °F 38.2 °F 42.8 °F 99% 29.69 in 10.0 mi SSW 8.1 mph - N/A   Clear
3:35 AM 42.8 °F 38.0 °F 41.9 °F 97% 29.69 in 10.0 mi SSW 8.1 mph - N/A   Clear
3:55 AM 42.1 °F 37.7 °F 41.4 °F 97% 29.69 in 10.0 mi SSW 6.9 mph - N/A   Clear
4:15 AM 41.9 °F 37.5 °F 40.8 °F 96% 29.69 in 10.0 mi SW 6.9 mph - N/A   Clear
4:35 AM 41.2 °F 36.6 °F 40.3 °F 97% 29.70 in 10.0 mi SW 6.9 mph - N/A   Clear
4:55 AM 40.8 °F 35.6 °F 39.7 °F 96% 29.71 in 10.0 mi SW 8.1 mph - N/A   Clear
5:15 AM 40.5 °F 35.8 °F 39.6 °F 97% 29.72 in 10.0 mi WSW 6.9 mph - N/A   Clear
5:35 AM 39.7 °F 34.9 °F 38.8 °F 97% 29.73 in 10.0 mi WSW 6.9 mph - N/A   Clear
5:55 AM 39.2 °F 35.0 °F 38.5 °F 97% 29.74 in 7.0 mi SW 5.8 mph - N/A   Clear
6:15 AM 39.2 °F 35.9 °F 38.5 °F 97% 29.75 in 10.0 mi WSW 4.6 mph - N/A   Clear
6:35 AM 39.0 °F 35.7 °F 38.3 °F 97% 29.75 in 10.0 mi SW 4.6 mph - N/A   Clear
6:55 AM 38.3 °F - 37.8 °F 98% 29.76 in 7.0 mi Calm Calm - N/A   Clear
7:15 AM 39.0 °F - 38.3 °F 97% 29.77 in 10.0 mi Calm Calm - N/A   Clear
7:35 AM 39.2 °F - 38.1 °F 96% 29.78 in 10.0 mi Calm Calm - N/A   Clear
7:55 AM 39.2 °F - 38.3 °F 97% 29.79 in 10.0 mi Calm Calm - N/A   Clear
8:15 AM 40.5 °F 37.3 °F 39.6 °F 97% 29.80 in 10.0 mi South 4.6 mph - N/A   Clear
8:35 AM 42.1 °F 40.2 °F 39.4 °F 90% 29.81 in 10.0 mi SSW 3.5 mph - N/A   Clear
8:55 AM 43.5 °F 40.1 °F 39.6 °F 86% 29.82 in 10.0 mi SW 5.8 mph - N/A   Clear
9:15 AM 44.8 °F 40.4 °F 39.7 °F 82% 29.82 in 10.0 mi SW 8.1 mph - N/A   Clear
9:35 AM 45.7 °F 42.0 °F 39.4 °F 79% 29.83 in 10.0 mi West 6.9 mph - N/A   Clear
9:55 AM 46.4 °F 41.1 °F 39.6 °F 77% 29.84 in 10.0 mi WSW 11.5 mph - N/A   Scattered Clouds
10:15 AM 48.0 °F - 39.6 °F 73% 29.84 in 10.0 mi WSW 9.2 mph - N/A   Scattered Clouds
10:35 AM 48.9 °F - 39.2 °F 69% 29.83 in 10.0 mi West 5.8 mph - N/A   Clear
10:55 AM 50.0 °F - 38.8 °F 66% 29.82 in 10.0 mi West 4.6 mph - N/A   Clear
11:15 AM 50.9 °F - 39.0 °F 64% 29.82 in 10.0 mi WSW 3.5 mph - N/A   Scattered Clouds
11:35 AM 51.3 °F - 38.8 °F 63% 29.82 in 10.0 mi SW 8.1 mph - N/A   Clear
11:55 AM 52.5 °F - 39.0 °F 60% 29.82 in 10.0 mi Calm Calm - N/A   Scattered Clouds
12:15 PM 54.1 °F - 39.4 °F 57% 29.81 in 10.0 mi West 6.9 mph - N/A   Scattered Clouds
12:35 PM 54.9 °F - 40.1 °F 58% 29.80 in 10.0 mi WSW 5.8 mph - N/A   Clear
12:55 PM 55.4 °F - 39.0 °F 54% 29.79 in 10.0 mi SW 5.8 mph - N/A   Clear
1:15 PM 55.4 °F - 37.9 °F 52% 29.78 in 10.0 mi WSW 3.5 mph 16.1 mph N/A   Scattered Clouds
1:35 PM 57.2 °F - 39.4 °F 51% 29.78 in 10.0 mi SSW 9.2 mph - N/A   Clear
1:55 PM 57.0 °F - 39.2 °F 51% 29.78 in 10.0 mi West 9.2 mph - N/A   Scattered Clouds
2:15 PM 57.7 °F - 39.6 °F 51% 29.78 in 10.0 mi West 12.7 mph 17.3 mph N/A   Clear
2:35 PM 58.1 °F - 39.9 °F 51% 29.77 in 10.0 mi WSW 10.4 mph 18.4 mph N/A   Clear
2:55 PM 59.2 °F - 40.5 °F 50% 29.77 in 10.0 mi WSW 13.8 mph 17.3 mph N/A   Clear
3:15 PM 58.6 °F - 38.5 °F 47% 29.77 in 10.0 mi SW 8.1 mph 17.3 mph N/A   Clear
3:35 PM 59.4 °F - 39.4 °F 48% 29.76 in 10.0 mi SW 11.5 mph 17.3 mph N/A   Clear
3:55 PM 59.5 °F - 39.2 °F 47% 29.75 in 10.0 mi SW 6.9 mph 16.1 mph N/A   Clear
4:15 PM 59.4 °F - 39.6 °F 48% 29.75 in 10.0 mi WSW 11.5 mph - N/A   Clear
4:35 PM 59.4 °F - 39.2 °F 47% 29.74 in 10.0 mi SW 8.1 mph - N/A   Clear
4:55 PM 59.2 °F - 39.0 °F 47% 29.74 in 10.0 mi SSW 8.1 mph - N/A   Clear
5:15 PM 58.5 °F - 40.1 °F 51% 29.75 in 10.0 mi WSW 8.1 mph - N/A   Clear
5:35 PM 57.4 °F - 39.7 °F 52% 29.75 in 10.0 mi SW 9.2 mph - N/A   Clear
5:55 PM 56.7 °F - 40.3 °F 54% 29.75 in 10.0 mi SW 6.9 mph - N/A   Clear
6:15 PM 54.9 °F - 41.0 °F 60% 29.76 in 10.0 mi SW 5.8 mph - N/A   Clear
6:35 PM 52.5 °F - 40.5 °F 64% 29.76 in 10.0 mi SSW 4.6 mph - N/A   Clear
6:55 PM 52.9 °F - 40.1 °F 62% 29.76 in 10.0 mi SSW 6.9 mph - N/A   Clear
7:15 PM 51.4 °F - 39.9 °F 65% 29.77 in 10.0 mi SSW 6.9 mph - N/A   Clear
7:35 PM 50.0 °F - 39.9 °F 68% 29.77 in 10.0 mi SW 5.8 mph - N/A   Clear
7:55 PM 51.4 °F - 39.2 °F 63% 29.76 in 10.0 mi SSW 5.8 mph - N/A   Clear
8:15 PM 50.2 °F - 39.2 °F 66% 29.76 in 10.0 mi SW 4.6 mph - N/A   Clear
8:35 PM 49.1 °F - 39.2 °F 69% 29.76 in 10.0 mi SW 3.5 mph - N/A   Clear
8:55 PM 49.1 °F - 39.0 °F 68% 29.76 in 10.0 mi SSW 4.6 mph - N/A   Clear
9:15 PM 47.3 °F - 38.7 °F 72% 29.76 in 10.0 mi SSW 4.6 mph - N/A   Clear
9:35 PM 46.9 °F - 38.7 °F 73% 29.76 in 10.0 mi SW 3.5 mph - N/A   Clear
9:55 PM 48.2 °F - 38.5 °F 69% 29.77 in 10.0 mi SSW 4.6 mph - N/A   Clear
10:15 PM 46.9 °F - 38.5 °F 72% 29.76 in 10.0 mi SSW 5.8 mph - N/A   Clear
10:35 PM 47.1 °F - 38.5 °F 72% 29.75 in 10.0 mi SSW 8.1 mph - N/A   Clear
10:55 PM 46.9 °F - 38.5 °F 72% 29.75 in 10.0 mi SSW 6.9 mph - N/A   Clear
11:15 PM 46.0 °F 41.9 °F 38.3 °F 74% 29.75 in 10.0 mi SSW 8.1 mph - N/A   Clear
11:35 PM 45.9 °F 41.7 °F 37.9 °F 74% 29.74 in 10.0 mi SSW 8.1 mph - N/A   Clear
11:55 PM 45.9 °F 41.2 °F 37.8 °F 73% 29.74 in 10.0 mi WSW 9.2 mph - N/A   Clear